TimeCDT,TemperatureF,Dew PointF,Humidity,Sea Level PressureIn,VisibilityMPH,Wind Direction,Wind SpeedMPH,Gust SpeedMPH,PrecipitationIn,Events,Conditions,WindDirDegrees,DateUTC
12:53 AM,68.0,50.0,52,30.03,10.0,South,4.6,-,N/A,,Clear,190,2013-05-14 05:53:00
1:53 AM,71.1,48.0,44,30.01,10.0,SW,9.2,-,N/A,,Clear,230,2013-05-14 06:53:00
2:53 AM,71.1,46.0,41,30.00,10.0,WSW,8.1,-,N/A,,Clear,240,2013-05-14 07:53:00
3:53 AM,72.0,45.0,38,29.99,10.0,WSW,12.7,20.7,N/A,,Clear,250,2013-05-14 08:53:00
4:53 AM,72.0,44.1,37,29.98,10.0,WSW,11.5,23.0,N/A,,Clear,250,2013-05-14 09:53:00
5:53 AM,71.1,44.1,38,29.99,10.0,West,15.0,26.5,N/A,,Clear,260,2013-05-14 10:53:00
6:53 AM,72.0,44.1,37,30.00,10.0,West,17.3,26.5,N/A,,Clear,260,2013-05-14 11:53:00
7:53 AM,73.9,45.0,35,30.01,10.0,West,16.1,24.2,N/A,,Clear,260,2013-05-14 12:53:00
8:53 AM,75.0,46.9,37,30.02,10.0,West,18.4,32.2,N/A,,Clear,260,2013-05-14 13:53:00
9:53 AM,78.1,48.0,35,30.03,10.0,West,13.8,26.5,N/A,,Clear,270,2013-05-14 14:53:00
10:53 AM,81.0,50.0,34,30.04,10.0,West,12.7,25.3,N/A,,Clear,270,2013-05-14 15:53:00
11:53 AM,82.9,51.1,33,30.04,10.0,WSW,11.5,19.6,N/A,,Clear,250,2013-05-14 16:53:00
12:53 PM,84.9,48.9,29,30.02,10.0,West,16.1,21.9,N/A,,Clear,270,2013-05-14 17:53:00
1:53 PM,87.1,48.0,26,30.00,10.0,WSW,17.3,26.5,N/A,,Clear,240,2013-05-14 18:53:00
2:53 PM,88.0,50.0,27,29.99,10.0,WSW,9.2,20.7,N/A,,Clear,250,2013-05-14 19:53:00
3:53 PM,88.0,48.0,25,29.98,10.0,West,13.8,18.4,N/A,,Clear,260,2013-05-14 20:53:00
4:53 PM,87.1,48.9,27,29.96,10.0,SW,11.5,17.3,N/A,,Clear,230,2013-05-14 21:53:00
5:53 PM,86.0,51.1,30,29.96,10.0,SW,8.1,-,N/A,,Clear,230,2013-05-14 22:53:00
6:53 PM,82.9,50.0,32,29.96,10.0,SSW,5.8,-,N/A,,Clear,200,2013-05-14 23:53:00
7:53 PM,79.0,48.9,35,29.96,10.0,SSW,4.6,-,N/A,,Clear,210,2013-05-15 00:53:00
8:53 PM,75.0,50.0,41,29.96,10.0,SSW,3.5,-,N/A,,Clear,210,2013-05-15 01:53:00
9:53 PM,73.0,51.1,46,29.98,10.0,South,6.9,-,N/A,,Clear,190,2013-05-15 02:53:00
10:53 PM,71.1,52.0,51,29.99,10.0,South,5.8,-,N/A,,Clear,190,2013-05-15 03:53:00
11:53 PM,69.1,52.0,54,29.99,10.0,South,5.8,-,N/A,,Clear,180,2013-05-15 04:53:00